Seattle Boeing, WA
on Wednesday, January 2, 2013

Wednesday
Previous Day Next Day
Daily Summary
 ActualAverage (KSEA)Record (KSEA)
Temperature
Mean Temperature °F 41°F  
Max Temperature 46°F 46°F 56°F (2003)
Min Temperature 28°F 36°F 6°F (1950)
Degree Days
Heating Degree Days 28 24  
Month to date heating degree days 48  
Since 1 July heating degree days 1986  
Cooling Degree Days 0 0  
Month to date cooling degree days 0  
Year to date cooling degree days 0  
Moisture
Dew Point 24°F   
Average Humidity 64    
Maximum Humidity 89    
Minimum Humidity 41    
Precipitation
Precipitation 0.00 in 0.18 in 1.77 in (2007)
Month to date precipitation 0.36  
Year to date precipitation 0.36  
Snow
Snow 0.00 in in 2.60 in (1965)
Month to date snowfall  
Since 1 July snowfall  
Snow Depth in   
Wind
Wind Speed 2 mph   
Max Wind Speed 10 mph   
Max Gust Speed mph   
Visibility 10 miles   
Events     

Key: T is trace of precipitation, MM is missing value
Source: NWS Daily Summary
Time(PST)TemperatureDew PointHumidity Pressure Visibility Wind DirectionWind SpeedGust SpeedPrecipitationEvents Conditions
12:53 AM 30.9°F 28.0°F 89% 30.35 in 10.0 miles Calm Calm - N/A   Clear
1:53 AM 30.9°F 27.0°F 85% 30.33 in 10.0 miles Calm Calm - N/A   Clear
2:53 AM 30.9°F 27.0°F 85% 30.33 in 10.0 miles Calm Calm - N/A   Clear
3:53 AM 30.2°F 26.6°F 86% 30.32 in 10.0 miles Calm Calm - N/A   Clear
4:53 AM 30.9°F 27.0°F 85% 30.30 in 6.0 miles Calm Calm - N/A   Clear
5:53 AM 30.9°F 26.1°F 82% 30.30 in 7.0 miles Calm Calm - N/A   Clear
6:53 AM 30.2°F 26.6°F 86% 30.29 in 10.0 miles Calm Calm - N/A   Clear
7:53 AM 28.9°F 25.0°F 85% 30.29 in 8.0 miles Calm Calm - N/A   Clear
8:53 AM 30.0°F 27.0°F 88% 30.31 in 10.0 miles Calm Calm - N/A   Clear
9:53 AM 34.0°F 28.9°F 82% 30.32 in 10.0 miles Calm Calm - N/A   Partly Cloudy
10:53 AM 37.9°F 28.9°F 70% 30.31 in 10.0 miles Calm Calm - N/A   Clear
11:53 AM 44.1°F 27.0°F 51% 30.29 in 10.0 miles SSE 4.6 mph - N/A   Clear
12:53 PM 46.9°F 24.1°F 41% 30.27 in 10.0 miles SSE 4.6 mph - N/A   Clear
1:53 PM 46.9°F 24.1°F 41% 30.26 in 10.0 miles SSE 9.2 mph - N/A   Clear
2:53 PM 46.9°F 24.1°F 41% 30.25 in 10.0 miles South 6.9 mph - N/A   Partly Cloudy
3:53 PM 44.1°F 21.9°F 42% 30.25 in 10.0 miles SSE 5.8 mph - N/A   Clear
4:53 PM 41.0°F 21.0°F 45% 30.24 in 10.0 miles SSE 3.5 mph - N/A   Clear
5:53 PM 37.9°F 19.9°F 48% 30.24 in 10.0 miles SSE 5.8 mph - N/A   Clear
6:53 PM 39.0°F 19.0°F 45% 30.23 in 10.0 miles SE 8.1 mph - N/A   Clear
7:53 PM 39.2°F 17.6°F 42% 30.23 in 10.0 miles SE 10.4 mph - N/A   Clear
8:53 PM 33.1°F 19.0°F 56% 30.21 in 10.0 miles Calm Calm - N/A   Clear
9:53 PM 34.0°F 18.0°F 52% 30.21 in 10.0 miles SE 5.8 mph - N/A   Clear
10:53 PM 37.9°F 19.0°F 47% 30.20 in 10.0 miles ESE 4.6 mph - N/A   Clear
11:53 PM 32.0°F 19.0°F 59% 30.20 in 10.0 miles SE 4.6 mph - N/A   Clear
Moon Phase
Jan. 02 Jan. 04 Jan. 11 Jan. 18 Jan. 26
Sunrise:07:57 AM (PST) Moon Rise:10:34 PM (PST)1/2
Sunset:04:30 PM (PST) Moon Set:10:17 AM (PST)1/2

Copyright © 2014 The Weather Underground, Inc.